カタログに戻る

STARLINK-1222

運用中通信VLEO
NORAD 45228·PAYLOAD·🇺🇸 United States

打ち上げ Feb 17, 2020 から Cape Canaveral Space Force Station

Loading…

次のパス (今後24時間)

TLE

最新Source: CelesTrak SupGP

元期: Sep 14, 2026, 13:05 UTC

1 45228C 20012BC  26257.54562500  .00080053  00000+0  83084-3 0  2573
2 45228  53.0482 148.2189 0003906 112.6910 122.0785 15.63948687    19

AllMySatでSTARLINK-1222をリアルタイム追跡

Download on the App Store